Weather History for KHKY - June, 2012

Change the Weather History Date:

Thursday, June 14, 2012

  Actual Average (WUND) Record (WUND)
Temperature  
Mean Temperature 72 °F -  
Max Temperature 80 °F - - (-1)
Min Temperature 64 °F - - (-1)
Cooling Degree Days 6    
Growing Degree Days 22 (Base 50)    
Moisture  
Dew Point 56 °F    
Average Humidity 58    
Maximum Humidity 73    
Minimum Humidity 47    
Precipitation  
Precipitation 0.00 in - - ()
Sea Level Pressure  
Sea Level Pressure 30.07 in    
Wind  
Wind Speed 5 mph (NE)    
Max Wind Speed 9 mph    
Max Gust Speed 17 mph    
Visibility 10 miles    
Events      
Averages and records for this station are not official NWS values.
T = Trace of Precipitation, MM = Missing Value Source: NWS Daily Summary

Daily Weather History Graph

Daily Weather History Graph

Search for Another Location

Airport or City:

Trip Planner

Search our weather history database for the weather conditions in past years. The results will help you decide how hot, cold, wet, or windy it might be!

Date:

Astronomy

Jun. 14, 2012 Rise Set
Actual Time 6:08 AM EDT 8:43 PM EDT
Civil Twilight 5:38 AM EDT 9:13 PM EDT
Nautical Twilight 5:01 AM EDT 9:50 PM EDT
Astronomical Twilight 4:20 AM EDT 10:31 PM EDT
Moon 2:44 AM EDT (6/14) 4:30 PM EDT (6/14)
Length of Visible Light 15h 34m
Length of Day
14h 34m
Waning Crescent, 21% of the Moon is Illuminated
Jun 14
Waning Crescent
Jun 19
New
Jun 26
First Quarter
Jul 3
Full
Jul 10
Last Quarter

Hourly Weather History & Observations

Time (EDT) Temp. Dew Point Humidity Pressure Visibility Wind Dir Wind Speed Gust Speed Precip Events Conditions
12:53 AM 70.0 °F 59.0 °F 68% 29.99 in 10.0 mi NE 3.5 mph - N/A   Clear
1:53 AM 70.0 °F 59.0 °F 68% 30.00 in 10.0 mi NE 5.8 mph - N/A   Overcast
2:53 AM 69.1 °F 60.1 °F 73% 29.99 in 10.0 mi NE 5.8 mph - N/A   Overcast
3:53 AM 69.1 °F 60.1 °F 73% 30.01 in 10.0 mi Calm Calm - N/A   Overcast
4:53 AM 68.0 °F 55.9 °F 65% 30.03 in 10.0 mi Calm Calm - N/A   Overcast
5:53 AM 66.0 °F 53.1 °F 63% 30.04 in 10.0 mi NE 6.9 mph - N/A   Mostly Cloudy
6:53 AM 64.9 °F 55.0 °F 70% 30.07 in 10.0 mi Calm Calm - N/A   Scattered Clouds
7:53 AM 68.0 °F 53.1 °F 59% 30.09 in 10.0 mi NE 6.9 mph - N/A   Overcast
8:53 AM 69.1 °F 52.0 °F 54% 30.11 in 10.0 mi NNE 5.8 mph - N/A   Partly Cloudy
9:38 AM 71.6 °F 53.6 °F 53% 30.17 in 10.0 mi NNE 8.1 mph - N/A   Partly Cloudy
9:53 AM 72.0 °F 52.0 °F 49% 30.11 in 10.0 mi NE 5.8 mph - N/A   Clear
10:53 AM 73.9 °F 53.1 °F 48% 30.10 in 10.0 mi NNE 5.8 mph - N/A   Clear
11:53 AM 73.9 °F 53.1 °F 48% 30.10 in 10.0 mi East 3.5 mph - N/A   Clear
12:53 PM 75.0 °F 54.0 °F 48% 30.10 in 10.0 mi Variable 3.5 mph - N/A   Clear
1:53 PM 77.0 °F 55.9 °F 48% 30.09 in 10.0 mi North 8.1 mph - N/A   Clear
2:53 PM 79.0 °F 57.0 °F 47% 30.08 in 10.0 mi Variable 6.9 mph - N/A   Clear
3:53 PM 79.0 °F 57.0 °F 47% 30.07 in 10.0 mi Variable 5.8 mph - N/A   Mostly Cloudy
4:53 PM 79.0 °F 57.9 °F 48% 30.05 in 10.0 mi NE 6.9 mph - N/A   Partly Cloudy
5:53 PM 79.0 °F 59.0 °F 50% 30.05 in 10.0 mi NE 9.2 mph 17.3 mph N/A   Mostly Cloudy
6:53 PM 75.9 °F 59.0 °F 56% 30.07 in 10.0 mi NE 6.9 mph - N/A   Overcast
7:53 PM 75.9 °F 60.1 °F 58% 30.07 in 10.0 mi ENE 4.6 mph - N/A   Overcast
8:53 PM 75.0 °F 57.9 °F 55% 30.09 in 10.0 mi East 5.8 mph - N/A   Overcast
9:53 PM 73.9 °F 57.9 °F 57% 30.10 in 10.0 mi ENE 5.8 mph - N/A   Overcast
10:53 PM 70.0 °F 57.9 °F 65% 30.13 in 10.0 mi ENE 5.8 mph - N/A   Overcast
11:53 PM 68.0 °F 59.0 °F 73% 30.14 in 10.0 mi ENE 5.8 mph - N/A   Clear